La Paz, Bolivia

7:32 AM -04 en Febrero 21, 2018 (GMT -0400)
El Alto International

Tiempo Historia de SLLP - Febrero, 2018

Change the Weather History Date:

Miércoles, Febrero 14, 2018

  Actual Average Record
Temperature  
Temperatura media 48 ° F -  
Temperatura máxima 56 ° F 55 ° F 77 ° F (1998)
Temperatura mínima 40 ° F 38 ° F 35 ° F (2006)
Degree Days  
Grados día de calefacción 17    
Moisture  
Punto de rocío 40 ° F    
Average Humidity 79    
Maximum Humidity 93    
Minimum Humidity 48    
Precipitación  
Precipitación 0.08 pul - - ()
Presión al nivel del mar  
Presión al nivel del mar 30.67 pul    
Viento  
Velocidad del viento 7 mph ()    
Velocidad máxima del viento 13 mph    
Max Gust Speed 24 mph    
Visibilidad 4.9 Millas    
Eventos Niebla , Lluvia    
Averages and records for this station are not official NWS values.
T = Trace of Precipitation, MM = Missing Value Source: Averaged Metar Reports

Daily Weather History Graph

Daily Weather History Graph

Search for Another Location

Airport or City:

Trip Planner

Search our weather history database for the weather conditions in past years. The results will help you decide how hot, cold, wet, or windy it might be!

Date:

Astronomía

Feb. 14, 2018 Salida Puesta
Hora real 6:27 AM -04 7:05 PM -04
Crepúsculo civil 6:05 AM -04 7:28 PM -04
Crepúsculo náutico 5:39 AM -04 7:54 PM -04
Crepúsculo astronómico 5:12 AM -04 8:20 PM -04
Luna 5:19 AM -04 (2/14) 6:24 PM -04 (2/14)
Horas de luz 13h 22m
Horas de luz
12h 38m
Creciente menguante, 1% of the Moon is Illuminated
Feb 14
Creciente menguante
Feb 15
Nueva
Feb 23
Cuarto creciente
Mar 1
Luna llena
Mar 9
Cuarto menguante

Hourly Weather History & Observations

Hora (-04) Temp. Vientos helados Punto de rocío Humedad Presión Visibilidad Wind Dir Velocidad del viento Velocidad de ráfagas Precip Eventos Condiciones
12:00 AM 44.6 ° F 40.2 ° F 42.8 ° F 93% 30.69 pul 2.5 mi ESE 8.1 mph - N/A Niebla , Lluvia Lluvia débil
1:00 AM 44.6 ° F - 39.2 ° F 81% 30.66 pul 6.2 mi Variable 2.3 mph - N/A   Muy nublado
1:40 AM 42.8 ° F 37.5 ° F 41.0 ° F 93% 30.69 pul 1.9 mi ENE 9.2 mph - N/A Lluvia Lluvia
2:00 AM 41 ° F - 38 ° F 87%  pul 2 mi ENE 10.4 mph - - Lluvia Lluvia
2:00 AM 41.0 ° F 34.7 ° F 39.2 ° F 93% 30.69 pul 1.9 mi ENE 10.4 mph - N/A Lluvia Lluvia
2:39 AM 41.0 ° F - 39.2 ° F 93% 30.69 pul 4.3 mi Variable 2.3 mph - N/A Lluvia Lluvia débil
3:00 AM 41.0 ° F - 37.4 ° F 87% 30.66 pul 6.2 mi Variable 2.3 mph - N/A   Muy nublado
4:00 AM 41.0 ° F - 39.2 ° F 93% 30.66 pul 2.5 mi Variable 2.3 mph - N/A Lluvia Lluvia
5:00 AM 41 ° F - 40 ° F 92%  pul 5 mi 2.3 mph - - Lluvia Lluvia débil
5:00 AM 41.0 ° F - 39.2 ° F 93% 30.66 pul 5.0 mi Variable 2.3 mph - N/A Lluvia Lluvia débil
6:00 AM 41.0 ° F 36.4 ° F 39.2 ° F 93% 30.69 pul 5.0 mi SE 6.9 mph - N/A Lluvia Lluvia débil
7:00 AM 41.0 ° F 38.0 ° F 39.2 ° F 93% 30.69 pul 3.7 mi SE 4.6 mph - N/A   Muy nublado
8:00 AM 42 ° F - 41 ° F 93%  pul 3 mi SSE 8.1 mph - - Lluvia Lluvia débil
8:00 AM 42.8 ° F 38.0 ° F 41.0 ° F 93% 30.71 pul 3.1 mi SSE 8.1 mph - N/A Lluvia Lluvia débil
9:00 AM 42.8 ° F 36.6 ° F 41.0 ° F 93% 30.71 pul 3.7 mi ESE 11.5 mph - N/A Lluvia Lluvia débil
10:00 AM 46.4 ° F 42.4 ° F 41.0 ° F 81% 30.71 pul 3.7 mi ESE 8.1 mph - N/A Lluvia Lluvia débil
11:00 AM 49 ° F - 43 ° F 71%  pul 4 mi SE 10.4 mph - - Lluvia Lluvia débil
11:00 AM 48.2 ° F - 42.8 ° F 82% 30.71 pul 3.7 mi SE 10.4 mph - N/A Lluvia Lluvia débil
12:00 PM 50.0 ° F - 44.6 ° F 82% 30.71 pul 5.0 mi Este 11.5 mph - N/A   Muy nublado
1:00 PM 51.8 ° F - 42.8 ° F 71% 30.69 pul 6.2 mi Este 12.7 mph - N/A   Muy nublado
2:00 PM 53 ° F - 39 ° F 48%  pul 9 mi NE 12.7 mph - -   Parcialmente nublado
2:00 PM 53.6 ° F - 39.2 ° F 58% 30.66 pul 6.2 mi NE 12.7 mph - N/A   Muy nublado
3:00 PM 55.4 ° F - 39.2 ° F 54% 30.63 pul 6.2 mi NE 11.5 mph 23.0 mph N/A   Muy nublado
4:00 PM 53.6 ° F - 39.2 ° F 58% 30.60 pul 6.2 mi ENE 11.5 mph 23.0 mph N/A   Muy nublado
5:00 PM 52 ° F - 38 ° F 48%  pul 9 mi ENE 12.7 mph - -   Parcialmente nublado
5:00 PM 51.8 ° F - 37.4 ° F 58% 30.60 pul 6.2 mi ENE 12.7 mph 24.2 mph N/A   Muy nublado
6:00 PM 50.0 ° F - 39.2 ° F 66% 30.60 pul 6.2 mi Este 9.2 mph - N/A   Muy nublado
7:00 PM 48.2 ° F - 37.4 ° F 66% 30.63 pul 6.2 mi ENE 9.2 mph - N/A   Muy nublado
8:00 PM 46 ° F - 37 ° F 61%  pul 9 mi NE 9.2 mph - -   Muy nublado
8:00 PM 46.4 ° F 41.9 ° F 37.4 ° F 71% 30.66 pul 6.2 mi NE 9.2 mph - N/A   Muy nublado
9:00 PM 46.4 ° F 42.4 ° F 37.4 ° F 71% 30.66 pul 6.2 mi NE 8.1 mph - N/A   Muy nublado
10:00 PM 44.6 ° F 42.2 ° F 41.0 ° F 87% 30.69 pul 6.2 mi Este 4.6 mph - N/A   Muy nublado
11:00 PM 43 ° F - 41 ° F 91%  pul 2 mi Este 9.2 mph - - Niebla Poca niebla
11:00 PM 42.8 ° F 37.5 ° F 41.0 ° F 93% 30.69 pul 2.5 mi Este 9.2 mph - N/A Niebla Niebla